Maroantsetra Airport


Codes: FMNR/WMN
Name: Maroantsetra Airport
City:
Country: Madagascar
Elevation: 13 ft.
Wikipedia:

Photos at Maroantsetra Airport


   Photos courtesy of SpottingLog. You can add your own sightings and photos by signing up for a free trial today.



No photos found.

Weather at Maroantsetra Airport


Time (UTC)DescriptionTempratureWindCloud coverageVisibilityPressureHumidity
16-Jun-2024 09:00Moderate Rain23°C9 mph, S100%5835m1016hPa95%
16-Jun-2024 12:00Moderate Rain23°C9 mph, S100%6573m1016hPa94%
16-Jun-2024 15:00Moderate Rain23°C11 mph, S100%5237m1017hPa93%
16-Jun-2024 18:00Light Rain23°C9 mph, S100%7113m1018hPa92%
16-Jun-2024 21:00Light Rain23°C7 mph, S100%7332m1018hPa92%
17-Jun-2024 00:00Light Rain22°C7 mph, S100%9793m1017hPa91%
17-Jun-2024 03:00Light Rain22°C7 mph, S100%8605m1019hPa91%
17-Jun-2024 06:00Light Rain22°C7 mph, S100%10000m1021hPa90%
17-Jun-2024 09:00Light Rain23°C9 mph, SE100%8821m1020hPa92%
17-Jun-2024 12:00Light Rain23°C7 mph, SE100%10000m1018hPa89%
17-Jun-2024 15:00Light Rain23°C9 mph, SE99%10000m1019hPa88%
17-Jun-2024 18:00Light Rain23°C7 mph, SE100%10000m1020hPa90%
17-Jun-2024 21:00Light Rain23°C7 mph, S97%10000m1019hPa90%
18-Jun-2024 00:00Light Rain22°C7 mph, S86%10000m1018hPa90%
18-Jun-2024 03:00Light Rain23°C7 mph, S92%8687m1019hPa90%
18-Jun-2024 06:00Light Rain23°C9 mph, SE92%10000m1020hPa88%
18-Jun-2024 09:00Light Rain24°C11 mph, S74%10000m1019hPa85%
18-Jun-2024 12:00Light Rain24°C9 mph, SE74%10000m1018hPa84%
18-Jun-2024 15:00Light Rain22°C9 mph, SE82%10000m1019hPa88%
18-Jun-2024 18:00Light Rain22°C9 mph, SE88%10000m1021hPa88%
18-Jun-2024 21:00Light Rain22°C7 mph, S97%10000m1021hPa88%
19-Jun-2024 00:00Light Rain21°C4 mph, S92%10000m1019hPa87%
19-Jun-2024 03:00Light Rain21°C4 mph, S84%10000m1020hPa89%
19-Jun-2024 06:00Light Rain22°C4 mph, S76%10000m1021hPa85%
19-Jun-2024 09:00Light Rain23°C7 mph, S82%10000m1020hPa84%
19-Jun-2024 12:00Light Rain24°C11 mph, S68%10000m1018hPa79%
19-Jun-2024 15:00Light Rain22°C9 mph, SE35%10000m1019hPa84%
19-Jun-2024 18:00Light Rain21°C4 mph, SE32%10000m1021hPa84%
19-Jun-2024 21:00Light Rain20°C2 mph, SW69%10000m1021hPa86%
20-Jun-2024 00:00Light Rain20°C0 mph, SW84%10000m1020hPa90%
20-Jun-2024 03:00Light Rain20°C4 mph, S100%10000m1021hPa92%
20-Jun-2024 06:00Light Rain21°C4 mph, S100%10000m1023hPa90%
20-Jun-2024 09:00Light Rain23°C7 mph, S83%10000m1021hPa82%
20-Jun-2024 12:00Light Rain23°C11 mph, SE84%10000m1020hPa79%
20-Jun-2024 15:00Light Rain22°C9 mph, SE36%10000m1021hPa85%
20-Jun-2024 18:00Light Rain21°C4 mph, SE48%10000m1023hPa87%
20-Jun-2024 21:00Light Rain21°C4 mph, SE87%10000m1022hPa89%
21-Jun-2024 00:00Light Rain20°C2 mph, S86%10000m1021hPa92%
21-Jun-2024 03:00Light Rain20°C0 mph, S94%10000m1021hPa94%
21-Jun-2024 06:00Light Rain21°C0 mph, NE96%9955m1023hPa89%